Regional Weather Roundup
Issued by NWS

Home | Current Version | Previous Version | Graphics & Text | Print | Product List | Glossary On
Versions: 1 2 3 4 5 6 7 8 9 10 11 12 13 14 15 16 17 18 19 20 21 22 23 24 25 26 27 28 29 30 31 32 33 34 35 36 37 38 39 40 41 42 43 44 45 46 47 48 49 50
663
ASUS43 KLOT 102008
RWRIL

ILLINOIS REGIONAL WEATHER ROUNDUP
NATIONAL WEATHER SERVICE CHICAGO/ROMEOVILLE IL
200 PM CST WED FEB 10 2016

NOTE: "FAIR" INDICATES FEW OR NO CLOUDS BELOW 12,000 FEET WITH NO
SIGNIFICANT WEATHER AND/OR OBSTRUCTIONS TO VISIBILITY.

* THESE STATIONS ARE NOT UNDER NWS QUALITY CONTROL. THEY ALSO MAY NOT
  REPORT WEATHER SUCH AS PRECIPITATION OR FOG.

ILZ001-002-007-009-015-016-024-102100-
NORTHWEST ILLINOIS

CITY           SKY/WX    TMP DP  RH WIND       PRES   REMARKS
MOLINE         PTSUNNY   18   2  49 NW7       30.07F WCI   9
STERLING*      SUNNY     19   3  49 W13       30.03S WCI   7
SAVANNA*       SUNNY     18   0  46 W7        30.06S WCI   8
$$

ILZ003-004-008-010-011-017-018-102100-
NORTH CENTRAL ILLINOIS

CITY           SKY/WX    TMP DP  RH WIND       PRES   REMARKS
ROCKFORD       PTSUNNY   16   2  54 NW9       30.05S WCI   4
FREEPORT*      SUNNY     15   4  61 W9        30.05S WCI   3
ROCHELLE*      SUNNY     17   5  58 NW12      30.03S WCI   4
DE KALB*       SUNNY     15   4  61 NW9       30.01S WCI   3
$$

ILZ005-006-012>014-019>023-102100-
NORTHEAST ILLINOIS

CITY           SKY/WX    TMP DP  RH WIND       PRES   REMARKS
CHICAGO-OHARE  PTSUNNY   17   3  54 NW12G20   30.01S WCI   4
CHICAGO-MIDWAY MOSUNNY   18   2  49 NW12      30.02S WCI   5
AURORA         MOSUNNY   18   6  59 NW12G21   30.03S WCI   5
LANSING*       PTSUNNY   18   4  54 NW8       30.01S WCI   8
JOLIET*        MOSUNNY   19   6  56 W9G16     30.04S WCI   8
WAUKEGAN       CLOUDY    14   2  58 VRB6      30.00R WCI   5
DUPAGE AIRPORT PTSUNNY   16   2  54 NW10      30.00F WCI   4
KANKAKEE*      PTSUNNY   17   6  59 NW10G16   30.04S WCI   5
WHEELING       MOSUNNY   16   3  56 W10       30.02S WCI   4
MORRIS*        MOSUNNY   18   6  58 NW8       30.01F WCI   8
ROMEOVILLE*    PTSUNNY   17   6  59 NW12G18   30.02S WCI   5
NORTHERLY ISL    N/A     18   3  52 NW8         N/A  WCI   8
$$

LMZ740>746-102100-
SOUTHERN LAKE MICHIGAN

STATION/POSITION SKY/WX   TEMP    WIND        PRES    VSBY  WAVE
                          AIR SEA DIR/SP/G                  HT/PER
                          (F)     (DEG/KT/KT) (MB)    (MI)  (FT/S)
HARRISON CRIB              16     310/ 10/ 13   N/A
BURNHAM HARBOR             18     250/  7/ 14   N/A
CALUMET HARBOR             17     260/  5/  9 1015.6F
BURNS HARBOR               16     290/ 10/ 12 1016.6F
MICHIGAN CITY              15     260/ 16/ 18   N/A
$$

ILZ025>027-034>036-040-047-049-050-058-095>099-102100-
WEST-CENTRAL ILLINOIS

CITY           SKY/WX    TMP DP  RH WIND       PRES   REMARKS
QUINCY         LGT SNOW  19  13  77 NE3       30.08S
GALESBURG*     MOSUNNY   18   5  58 W7        30.07S WCI   8
MACOMB*        CLOUDY    18  11  73 W8        30.10F WCI   7
JACKSONVILLE*  CLOUDY    21  12  68 W6        30.09F WCI  14
PITTSFIELD*    LGT SNOW  19  15  82 CALM      30.10F
$$

ILZ028>032-037-038-041>044-048-051>054-059>061-102100-
CENTRAL ILLINOIS

CITY           SKY/WX    TMP DP  RH WIND       PRES   REMARKS
PONTIAC        PTSUNNY   19   8  62 W9        30.05S WCI   8
BLOOMINGTON    CLOUDY    20   4  50 W10       30.05S WCI   9
DECATUR        MOSUNNY   21   6  52 W12       30.07F WCI   9
PEORIA         CLOUDY    20   2  45 W12       30.08S WCI   8
LACON*         CLOUDY    19   3  49 W12       30.06S WCI   7
LINCOLN*       CLOUDY    20   6  54 W8        30.09R WCI  11
SPRINGFIELD    CLOUDY    20   5  52 W12       30.10F WCI   8
TAYLORVILLE    CLOUDY    19   9  63 W14       30.10S WCI   6
$$

ILZ033-039-045-046-055>057-062-063-102100-
EAST-CENTRAL ILLINOIS

CITY           SKY/WX    TMP DP  RH WIND       PRES   REMARKS
CHAMPAIGN      MOSUNNY   19   7  59 W14       30.05F WCI   6
RANTOUL*       CLOUDY    20   9  61 NW13      30.05S WCI   8
MATTOON        MOSUNNY   19   5  54 W10       30.07F WCI   7
PARIS*         PTSUNNY   18   8  63 W10       30.08S WCI   7
$$

ILZ079-100>102-102100-
SOUTHWEST ILLINOIS

CITY           SKY/WX    TMP DP  RH WIND       PRES   REMARKS
ALTON          LGT SNOW  19  12  73 SW6       30.12F WCI  11
BELLEVILLE     FLURRIES  21  13  71 W3        30.12F
CAHOKIA*       LGT SNOW  21  14  74 SW5       30.14S WCI  15
SPARTA*        LGT SNOW  20  14  76 CALM      30.15F
$$

ILZ064>066-069>071-074>076-080>082-084>086-088>090-092>094-102100-
SOUTH-CENTRAL ILLINOIS

CITY           SKY/WX    TMP DP  RH WIND       PRES   REMARKS
CARBONDALE     LGT SNOW  21  14  74 W8        30.16F WCI  11
CAIRO*         LGT SNOW  25  18  76 SW7       30.18F WCI  17
EFFINGHAM*     CLOUDY    21   7  55 SW12      30.12F WCI   9
MARION         CLOUDY    25   9  50 W9        30.17S WCI  15
MT. VERNON     CLOUDY    23   9  54 W9        30.14F WCI  13
CENTRALIA*     LGT SNOW  23  13  65 W12       30.13F WCI  12
SALEM*         CLOUDY    23   9  55 W12G20    30.13S WCI  12
METROPOLIS*    LGT SNOW  24  17  73 SW12      30.19F WCI  13
$$

ILZ067-068-072-073-078-083-087-091-102100-
SOUTHEAST ILLINOIS

CITY           SKY/WX    TMP DP  RH WIND       PRES   REMARKS
LAWRENCEVILLE  MOSUNNY   21   7  54 NW12      30.12F WCI   9
FLORA*         PTSUNNY   24   8  50 W10       30.14R WCI  13
FAIRFIELD*     CLOUDY    23   8  53 W5        30.13S WCI  17
HARRISBURG*    CLOUDY    25  10  54 W13       30.17S WCI  13
ROBINSON*      PTSUNNY   20   8  59 W12       30.12F WCI   8
CARMI*         CLOUDY    24  11  59 W12       30.15S WCI  12
$$

ABBREVIATIONS USED IN REMARKS
   TC - TEMPERATURE IN CELSIUS
  WCI - WIND CHILL INDEX
   HX - HEAT INDEX
  VSB - VISIBILITY
$$





USA.gov is the U.S. government's official web portal to all federal, state and local government web resources and services.